Home   Weather   Hong Kong   Past weeks
Flag for Hong Kong

Past Weather in Hong Kong, Hong Kong — Yesterday and Last 2 Weeks

Now
82 °F

Passing clouds.


Feels Like: 88 °F
Forecast: 85 / 77 °F
Wind: 8 mph from Southeast

Location: National Airport

Current Time: Apr 22, 2019 at 8:16:13 pm

Latest Report: Apr 22, 2019 at 7:30 pm


Visibility: N/A

Pressure: 29.83 "Hg

Humidity: 74%

Dew Point: 73 °F

Location of Hong KongLocation

Past Weather in Hong Kong — Graph

°F

Hong Kong Temperature Yesterday

Maximum temperature yesterday: 86 °F (at 11:30 am)
Minimum temperature yesterday: 77 °F (at 12:00 am)
Average temperature yesterday: 82 °F

High & Low Weather Summary for the Past Weeks

 TemperatureHumidityPressure
High88 °F (Apr 10, 2:00 pm)94% (Apr 14, 3:00 pm)29.98 "Hg (Apr 14, 3:00 pm)
Low68 °F (Apr 16, 5:30 am)57% (Apr 15, 11:30 am)29.65 "Hg (Apr 20, 3:30 pm)
Average78 °F80%29.84 "Hg
* Reported Apr 7 7:00 pm — Apr 22 7:00 pm, Hong Kong. Weather by CustomWeather, © 2019

Note: Actual official high and low records may vary slightly from our data, if they occured in-between our weather recording intervals... More about our weather records

Advertising

Hong Kong Weather History for the Previous 24 Hours

Scroll right to see more
 ConditionsComfort  
Time TempWeatherWind HumidityBarometerVisibility
7:00 pm
Mon, Apr 22
84 °FPassing clouds.6 mph74%29.83 "HgN/A
6:30 pm84 °FPassing clouds.6 mph70%29.80 "HgN/A
6:00 pm84 °FPassing clouds.7 mph70%29.80 "HgN/A
5:30 pm84 °FPassing clouds.10 mph70%29.77 "HgN/A
5:00 pm86 °FPassing clouds.10 mph66%29.77 "HgN/A
4:30 pm86 °FPassing clouds.12 mph66%29.77 "HgN/A
4:00 pm86 °FPassing clouds.12 mph66%29.77 "HgN/A
3:30 pm86 °FPassing clouds.14 mph62%29.74 "HgN/A
3:00 pm86 °FPassing clouds.16 mph66%29.74 "HgN/A
2:30 pm86 °FPassing clouds.15 mph66%29.77 "HgN/A
2:00 pm86 °FPassing clouds.14 mph70%29.77 "HgN/A
1:30 pm88 °FPassing clouds.10 mph66%29.80 "HgN/A
1:00 pm86 °FPassing clouds.13 mph66%29.80 "HgN/A
12:30 pm84 °FPassing clouds.12 mph74%29.83 "HgN/A
12:00 pm84 °FPassing clouds.10 mph74%29.83 "HgN/A
11:30 am86 °FPassing clouds.13 mph66%29.83 "HgN/A
11:00 am86 °FPassing clouds.13 mph66%29.83 "HgN/A
10:30 am84 °FPassing clouds.10 mph70%29.83 "HgN/A
10:00 am86 °FPassing clouds.10 mph66%29.83 "HgN/A
9:30 am86 °FPassing clouds.12 mph70%29.80 "HgN/A
9:00 am82 °FPassing clouds.8 mph79%29.80 "HgN/A
8:30 am82 °FScattered clouds.10 mph74%29.80 "HgN/A
8:00 am82 °FScattered clouds.6 mph79%29.80 "HgN/A
7:30 am82 °FScattered clouds.7 mph79%29.77 "HgN/A
7:00 am81 °FScattered clouds.3 mph84%29.77 "HgN/A
6:30 am81 °FScattered clouds.6 mph84%29.77 "HgN/A
6:00 am81 °FScattered clouds.3 mph84%29.74 "HgN/A
5:30 am81 °FPassing clouds.5 mph84%29.74 "HgN/A
5:00 am81 °FPassing clouds.3 mph84%29.74 "HgN/A
4:30 am81 °FPassing clouds.2 mph84%29.74 "HgN/A
4:00 am81 °FPassing clouds.7 mph84%29.74 "HgN/A
3:30 am81 °FPassing clouds.7 mph84%29.74 "HgN/A
2:30 am81 °FPassing clouds.8 mph84%29.77 "HgN/A
2:00 am81 °FPassing clouds.10 mph84%29.77 "HgN/A
1:30 am81 °FPassing clouds.7 mph89%29.77 "HgN/A
1:00 am82 °FPassing clouds.8 mph79%29.80 "HgN/A
12:30 am82 °FPassing clouds.9 mph84%29.80 "HgN/A
12:00 am82 °FPassing clouds.9 mph79%29.80 "HgN/A
11:30 pm
Sun, Apr 21
82 °FPassing clouds.8 mph79%29.80 "HgN/A
11:00 pm82 °FPassing clouds.9 mph79%29.80 "HgN/A
10:30 pm82 °FPassing clouds.9 mph79%29.80 "HgN/A
10:00 pm82 °FPassing clouds.10 mph79%29.80 "HgN/A
9:30 pm82 °FPassing clouds.10 mph79%29.77 "HgN/A
9:00 pm82 °FPassing clouds.8 mph84%29.77 "HgN/A
8:30 pm82 °FPassing clouds.10 mph79%29.77 "HgN/A
8:00 pm82 °FPassing clouds.12 mph79%29.74 "HgN/A
Weather by CustomWeather, © 2019

See weather overview